Regional Weather Roundup
Issued by NWS Cleveland, OH

Home | Current Version | Previous Version | Text Only | Print | Product List | Glossary Off
Versions: 1 2 3 4 5 6 7 8 9 10 11 12 13 14 15 16 17 18 19 20 21 22 23 24 25 26 27 28 29 30 31 32 33 34 35 36 37 38 39 40 41 42 43 44 45 46 47 48 49 50

000
ASUS41 KCLE 291202
RWRCLE
OHIO REGIONAL WEATHER ROUNDUP
NATIONAL WEATHER SERVICE CLEVELAND, OH
800 AM EDT WED MAR 29 2017

NOTE: "FAIR" INDICATES FEW OR NO CLOUDS BELOW 12,000 FEET WITH NO
SIGNIFICANT WEATHER AND/OR OBSTRUCTIONS TO VISIBILITY.

OHZ001>008-015>018-024>027-034-035-043-044-291300-
   NORTHWEST OHIO

CITY           SKY/WX    TMP DP  RH WIND       PRES   REMARKS
DEFIANCE       CLEAR     34  31  88 NE5       30.25R WCI  30
FINDLAY        CLEAR     37  32  82 NE3       30.23R
TOLEDO EXPRESS CLEAR     31  31 100 CALM      30.26R
TOLEDO EXEC    CLEAR     35  33  92 NE5       30.27R
LIMA           CLOUDY    39  36  89 E12       30.22R
$$

OHZ009>014-019>023-028>033-038-089-291300-
   NORTHEAST OHIO

CITY           SKY/WX    TMP DP  RH WIND       PRES   REMARKS
CLE-HOPKINS    CLOUDY    39  34  82 SE3       30.26R FOG
CLE-LAKEFRONT  PTCLDY    37  35  92 CALM      30.24R
CUY CO. ARPT   PTCLDY    36  34  93 CALM      30.24R
LORAIN-ELYRIA  CLOUDY    37  33  85 NE5       30.24R
ASHTABULA      CLEAR     34  33  96 CALM      30.23R FOG
AKRON-CANTON   MOCLDY    39  36  89 N8        30.20R FOG
WOOSTER        CLOUDY    38  36  92 NE6       30.22R
MANSFIELD      FOG       36  36 100 N5        30.21R VSB 3/4
YOUNGSTOWN     CLOUDY    38  34  85 N6        30.20R
$$

OHZ042-051>053-060>062-070>072-077>081-291300-
  SOUTHWEST OHIO

CITY           SKY/WX    TMP DP  RH WIND       PRES   REMARKS
CINC-COVINGTON CLOUDY    45  39  79 E13       30.16S
CINC-LUNKEN    MOCLDY    45  40  82 NE10      30.19R
HAMILTON       CLOUDY    44  39  82 E5        30.19S
DAYTON         CLOUDY    37  34  89 E9        30.20S
WRIGHT-PAT AFB CLOUDY    39  37  93 E9        30.20F
DAYTON GENERAL CLOUDY    41  36  82 NE14      30.17S
WILMINGTON     CLOUDY    38  36  92 NE10      30.18S
$$

OHZ036-037-039>041-045>050-054>059-063>069-073>076-082>088-291300-
  CENTRAL AND SOUTHEAST OHIO

CITY           SKY/WX    TMP DP  RH WIND       PRES   REMARKS
COLUMBUS       CLOUDY    43  40  89 N8        30.20R
OSU AIRPORT    CLOUDY    40  39  97 N7        30.21R
BOLTON FIELD   CLOUDY    40  38  93 N7        30.21R FOG
RICKENBACK AFB CLOUDY    42  39  91 N3        30.20R
NEWARK         CLOUDY    43  39  86 N3        30.19R
MARION         CLOUDY    40  37  89 N7        30.23R
LANCASTER      CLOUDY    45  40  82 N6        30.20R
ZANESVILLE     CLOUDY    44  39  82 N5        30.19R
NEW PHILLY     NOT AVBL
$$



USA.gov is the U.S. government's official web portal to all federal, state and local government web resources and services.